CAPE
1724 1321 2172 1811 1671 2338 1792 1620 1766 1693 2030 1615 1140 1864 539 465 400 941 1350 2495 2111 2158 1711 1647 1605 1803 1649 1922 1756 1414 1237 1447 1093 827 657 1051 1121 892 605 399 766 733 525
2034 1228 1293 692 1392 1581 1572 1464 1655 2404 1465 1606 1395 1937 1605 1285 466 397 505 1652 2149 1848 2138 2008 2319 1827 1736 1654 1945 1801 1602 1489 1842 1753 1566 1328 1463 1397 844 740 465 448 938
2550 2499 932 895 1324 1739 1820 1861 2106 1455 1435 1767 1141 1602 906 982 1115 1304 754 907 1442 1923 1958 2353 2344 2266 2294 1978 1952 1881 1881 1945 1924 1802 1741 1579 1371 1475 1227 913 885 640 223
1457 1457 1016 745 856 1470 1236 1170 1296 2337 1637 1470 1465 1327 1244 1588 1463 971 1383 1879 1706 969 1624 2052 2233 2039 2120 2328 2305 2421 2392 2067 1932 1871 1741 1624 1222 1116 1178 1314 754 105 24
1061 1489 647 441 793 1172 1311 1729 1527 1755 1655 1274 1255 1315 1308 894 1201 628 1015 1396 2228 1573 1526 1601 1855 1654 1926 1938 2352 2443 2510 2329 2010 1874 1844 1818 1448 923 823 272 416 33 0
648 425 601 537 631 457 726 1810 1374 1349 1236 1005 756 686 1579 1203 1098 1097 1045 1034 1765 1612 423 484 1214 1224 1784 2108 2025 1825 2029 2381 1864 1545 1533 1592 1478 1249 811 128 137 255 34
567 721 836 1901 1046 590 1193 1313 1802 1550 720 953 1465 519 475 609 413 778 1546 1586 1732 1704 1619 1305 3142 1297 1720 1893 1548 1282 1635 1661 1734 1662 1560 1222 884 1017 879 665 456 366 254
1334 1358 893 502 689 676 1179 801 787 749 673 1186 1053 1495 212 371 668 973 1997 1685 1250 1631 1341 1670 1700 1882 2320 2852 1781 1137 1637 1609 1547 1700 1354 963 728 589 627 556 386 206 184
921 1175 442 465 693 458 286 643 1257 1479 1982 2119 1612 985 343 499 197 1511 1217 757 734 868 1501 1257 1282 1518 1935 2000 1763 1453 707 652 980 1316 961 637 423 383 442 117 53 47 126
573 756 927 637 276 309 699 284 1591 2111 2126 1793 1530 810 635 553 105 172 780 777 560 676 1165 1420 804 1029 1405 1679 801 181 63 115 578 789 622 473 391 224 108 104 77 104 164
547 291 123 393 328 1001 1706 1651 1745 1908 2172 1887 1909 561 548 295 175 447 273 839 212 79 56 251 1074 1288 1266 1370 1121 222 392 583 742 888 560 297 211 198 149 152 149 143 131
1155 540 152 312 216 488 905 903 1079 1029 1299 1310 576 190 377 1344 1293 1045 1300 938 457 7 6 8 52 717 981 1010 283 129 120 95 164 277 363 362 280 197 153 170 182 204 205
1062 1008 878 755 446 642 441 624 1105 1108 1154 1135 1429 1197 913 1147 1250 1440 1629 1361 325 11 7 4 5 73 224 468 126 53 11 0 0 0 0 1 15 48 102 109 88 185 199
672 1305 1085 1158 1106 938 645 559 1283 1216 1251 1671 1203 1390 1689 2286 2292 2240 1938 1470 108 13 8 5 5 8 4 7 10 4 4 0 0 0 0 0 0 0 6 20 69 94 100
617 595 585 597 935 1123 1029 876 720 421 609 834 868 976 1107 1404 1029 2485 1451 1321 748 70 7 6 6 11 4 5 12 11 6 3 1 0 0 0 0 0 0 0 0 0 0
853 512 387 445 767 797 916 1153 1460 715 782 915 733 831 1038 890 1555 1947 1775 1536 1039 1201 35 5 9 9 5 3 11 13 7 2 2 0 0 0 0 0 0 0 0 0 0
898 753 580 1159 886 756 703 493 619 469 368 509 575 527 706 896 1124 1718 1985 768 1555 1577 366 8 6 8 10 6 14 19 2 5 3 2 0 0 0 0 0 0 0 0 0
935 817 582 423 945 645 341 374 255 151 226 212 315 388 570 761 868 1197 1581 1273 1407 1513 61 10 9 7 5 10 17 18 13 13 4 1 1 1 0 0 0 0 0 0 0
982 791 618 710 982 794 235 207 186 208 185 222 215 382 386 426 663 877 1132 1345 1225 1024 15 5 9 7 3 10 6 21 30 34 3 2 1 0 0 0 0 0 0 0 0
1161 1036 890 837 488 401 243 158 18 4 173 170 198 218 232 273 596 686 896 938 896 303 22 5 3 4 3 3 4 6 5 1 0 0 0 0 0 0 0 0 0 0 0
1182 1184 984 948 854 413 141 208 57 46 167 180 160 195 231 14 0 78 299 817 336 74 4 5 3 6 4 3 3 9 12 6 7 3 2 0 0 0 0 0 0 0 0
1511 1664 962 1034 635 644 0 0 0 140 128 179 216 136 143 0 0 0 0 0 67 193 6 5 5 4 5 2 8 2 4 5 2 1 5 0 0 0 0 0 0 0 0
2148 2035 1754 1163 790 447 0 0 0 0 101 88 109 127 69 0 8 9 0 0 0 0 46 13 6 5 6 6 12 0 1 14 3 0 0 1 2 10 2 0 0 0 0
1905 2074 1781 1340 1099 402 0 0 0 0 121 76 13 50 150 108 31 39 71 61 15 5 2 1 5 4 12 10 6 8 1 5 12 12 5 26 3 18 26 0 0 0 0
1830 1763 1549 1229 1115 561 0 0 0 0 64 209 91 15 19 76 0 0 113 141 66 43 0 0 0 0 5 0 8 2 6 9 5 26 20 64 2 34 28 0 0 0 0
1728 1246 1069 876 679 401 0 0 0 0 43 219 291 200 0 0 0 0 74 86 75 114 7 0 1 0 0 1 0 69 25 7 32 157 110 75 122 92 31 23 0 0 0
CIN
0 0 -11 -8 -20 -8 0 -7 -4 0 -4 -2 -1 -7 0 0 -1 -4 -93 -57 -64 -46 -29 -13 -4 -3 -4 0 0 0 0 0 0 0 0 0 0 0 0 0 0 0 0
-1 0 0 0 -2 -4 -15 -13 -1 -5 -1 -1 -3 -3 -10 -8 0 0 -1 -40 -78 -70 -43 -23 -3 -6 -5 -3 0 0 0 0 0 0 0 0 0 0 -1 0 0 -5 0
-1 0 0 0 -5 0 -2 -2 -1 0 0 -5 -2 -5 -2 -1 -1 -4 0 -6 -44 -73 -66 -43 -24 -10 -3 -3 -1 -1 0 0 0 0 0 -1 -1 0 0 0 0 0 -6
0 0 0 0 0 -2 0 0 0 0 -2 -22 -12 -15 -22 -5 -12 0 -9 -7 -18 -24 -46 -51 -43 -33 -23 -5 -1 0 -1 -2 -1 -1 -1 -1 -2 -1 0 0 -2 -37 -95
0 0 0 -6 -18 -1 -12 0 0 0 -6 -2 -4 -20 -11 -6 0 0 0 -1 -15 -13 -51 -35 -40 -39 -22 -16 -6 -2 -1 -2 -3 -3 -1 -1 -1 -3 -1 -5 0 -68 0
-8 -25 -20 -20 -30 -9 0 -2 0 0 -18 -21 -6 -8 -13 -22 -20 -31 -6 -4 -33 -4 -139 -97 -15 -5 -35 -21 -20 -23 -11 -3 -10 -11 -9 -2 -3 -3 -3 -33 -17 -5 -23
-4 -2 -4 0 0 -3 -4 0 0 0 -10 -14 -16 0 0 0 -3 0 -4 0 -7 0 -6 -6 -4 -7 -1 -55 -41 -28 -15 -14 -10 -9 -8 -15 -18 -6 -5 -6 -9 -3 -1
0 0 0 -7 0 -4 0 -10 -13 0 -1 -6 -1 0 0 -1 -11 0 -4 -1 -2 0 -4 0 -3 0 0 -3 -7 -20 -9 -14 -11 -7 -10 -14 -20 -20 -5 -7 -7 -8 -4
0 0 -1 -2 -3 -10 -25 -20 -5 0 0 0 0 0 -3 0 -30 -4 -1 0 -2 0 0 0 -1 0 0 0 -2 -5 -37 -47 -20 -9 -13 -16 -21 -19 -8 -16 -23 -19 -4
0 0 0 0 -35 -24 -1 -46 -6 0 0 0 0 0 -1 -4 -20 -8 -5 0 0 0 0 -3 0 0 0 0 -16 -68 -117 -86 -29 -16 -18 -17 -16 -19 -16 -9 -4 0 0
0 -2 -44 -16 -26 -3 0 0 0 0 0 0 0 -5 0 -3 -21 -1 -31 0 -2 -33 -29 0 0 0 0 0 0 -26 -15 -12 -10 -1 -2 -6 -8 -1 -1 0 0 0 -1
0 -4 -48 -28 -30 -8 -2 -11 -2 -2 -1 -1 -13 -30 -9 0 0 0 0 0 -1 0 0 0 -7 0 0 0 0 -10 -18 -40 -24 -2 0 0 -1 -3 -1 0 0 0 0
-5 -1 0 -1 -1 -5 -18 -9 -1 0 0 0 0 0 0 0 -2 0 0 0 0 0 0 0 0 -1 0 -1 -2 -22 -45 0 0 0 0 -30 -30 -5 -6 -6 -4 0 0
-2 0 -1 0 0 0 -8 -18 0 0 0 0 0 0 0 0 0 0 0 0 -3 -60 0 0 0 0 0 -31 0 0 0 0 0 0 0 0 -5 0 -59 -17 -5 -1 0
-1 -3 0 0 0 0 0 0 -2 -13 -9 -11 -11 -7 -2 -4 -17 0 0 -1 -1 -39 0 0 0 0 0 0 0 0 0 0 0 0 0 0 0 0 0 0 0 0 0
0 0 -1 0 -1 0 -3 -1 0 -2 -4 0 0 0 0 0 -1 -1 0 0 -2 -1 -96 0 0 0 0 0 0 0 0 0 0 0 0 0 0 0 0 0 0 0 0
0 -1 -1 -1 -1 -3 -3 0 0 0 0 -6 -4 -4 0 0 0 0 0 -13 0 0 -31 0 0 0 0 0 0 0 -1 0 0 0 0 0 0 0 0 0 0 0 0
-7 -9 -12 -13 -1 0 0 0 -3 0 0 -4 -2 -2 0 -1 0 0 0 0 0 -1 -58 0 0 0 0 0 0 0 0 0 0 0 0 -5 0 0 0 0 0 0 0
0 -1 -8 -4 0 0 -9 -2 -2 -2 0 0 -5 -3 -3 -1 0 0 0 -6 0 -1 -43 0 0 0 0 0 -1 0 -4 0 0 0 0 0 0 0 0 0 0 0 0
0 0 0 0 0 0 -1 -6 -17 0 0 0 -1 -1 -11 -16 0 0 0 0 0 -2 -34 0 0 0 0 0 -2 0 0 0 0 0 0 0 0 0 0 0 0 0 0
0 0 -1 0 -1 0 -3 -4 -2 -1 0 0 -1 0 -8 -13 0 -4 -15 0 0 -10 0 0 0 0 0 0 0 0 0 0 0 0 0 0 0 0 0 0 0 0 0
0 -1 0 0 0 -3 0 0 0 -1 0 0 0 -1 -9 0 0 0 0 0 -21 -2 0 0 0 0 0 0 0 -1 0 0 0 0 0 0 0 0 0 0 0 0 0
-1 0 -1 0 0 -1 0 0 0 0 -1 0 0 0 0 0 -3 -4 0 0 0 0 -8 -13 0 0 0 0 0 0 0 -3 0 0 0 0 0 0 0 0 0 0 0
-1 -1 -1 0 0 -1 0 0 0 0 -7 0 0 0 -1 0 -18 0 -4 -5 -7 0 -2 0 0 0 -2 0 0 -19 -2 -2 0 -8 -3 0 -9 -1 -5 0 0 0 0
-1 0 0 0 0 -14 0 0 0 0 -16 -2 0 0 -1 0 0 0 -4 0 -8 -8 0 0 0 0 -5 0 -2 0 0 0 0 -5 -5 0 -9 -15 -8 0 0 0 0
-6 -11 -17 -11 -13 -32 0 0 0 0 -25 -4 -6 -1 0 0 0 0 -19 -1 -1 0 0 0 0 0 0 -2 0 0 -2 -1 -11 -1 -1 0 -6 -4 -2 0 0 0 0
Wind_Speed
6 5 4 6 4 4 8 7 1 4 4 5 7 6 8 8 7 3 5 16 15 14 14 14 14 14 14 13 13 13 13 14 12 12 11 10 9 10 9 9 9 9 9
8 7 7 6 7 6 2 5 7 4 7 8 10 6 6 6 9 8 5 10 17 16 15 14 14 15 15 15 14 14 15 14 13 13 12 11 10 9 10 10 10 10 10
8 9 7 7 4 6 6 6 3 3 6 6 5 2 6 9 5 5 8 7 8 15 17 16 15 15 15 15 16 15 15 15 14 12 14 13 11 9 10 11 10 8 7
8 7 5 5 6 5 5 5 3 5 7 5 3 4 3 4 6 8 5 3 4 4 11 15 16 16 17 16 17 17 15 16 15 14 13 13 13 10 9 9 9 5 10
7 8 5 5 5 6 7 7 6 8 7 5 3 5 5 6 8 8 10 10 7 2 2 10 18 16 16 18 17 17 16 16 15 15 15 14 13 13 11 10 13 12 13
11 8 6 7 5 8 7 7 6 7 6 4 5 3 1 3 3 6 7 7 4 3 3 4 10 11 17 19 19 17 16 17 15 14 14 14 14 15 16 16 16 15 13
13 11 6 6 7 7 8 4 4 7 7 5 4 7 6 8 11 10 5 6 2 6 7 9 3 5 7 17 15 14 15 16 13 13 12 13 14 14 16 16 16 14 12
8 8 7 2 4 4 6 6 5 8 10 6 4 3 7 3 6 6 4 6 4 4 7 12 3 8 8 5 5 14 20 14 12 13 13 10 10 10 12 13 11 8 7
4 8 9 6 5 4 4 4 6 11 8 5 7 5 2 3 1 2 5 2 2 5 4 6 4 5 6 6 2 6 1 2 6 8 9 7 6 5 5 3 4 2 8
4 5 6 8 5 5 8 7 8 9 9 7 4 6 6 1 1 3 2 2 1 2 4 5 4 4 5 4 6 6 2 1 4 6 8 8 7 7 5 6 5 6 5
4 6 4 5 4 5 7 9 9 8 7 6 6 3 2 4 5 3 5 3 2 3 6 5 4 4 5 3 5 8 8 9 10 11 11 10 9 9 8 8 7 7 9
7 8 5 4 2 4 5 4 4 6 5 5 2 3 4 5 7 7 6 5 2 2 4 5 6 4 5 6 11 13 14 15 12 11 11 11 11 11 9 8 7 8 10
7 8 9 8 6 5 5 5 4 6 6 7 8 8 10 12 4 5 5 4 2 2 2 3 4 4 5 5 8 12 15 15 15 15 15 15 13 11 10 6 6 9 11
5 8 9 8 7 6 3 2 3 4 6 6 8 7 6 6 5 6 6 5 3 3 2 2 2 3 3 3 9 12 9 13 13 12 12 12 13 13 13 13 14 15 15
3 3 4 4 5 7 7 6 4 2 4 4 5 5 5 6 7 7 6 5 4 5 2 3 1 2 3 3 6 7 9 11 12 12 11 10 11 12 13 13 14 14 14
3 1 4 4 4 6 6 6 6 7 4 5 5 5 5 5 5 2 5 6 6 4 6 3 2 2 3 3 5 7 10 11 11 11 11 10 11 13 13 14 14 14 15
3 4 2 3 1 2 4 3 4 3 5 4 4 5 6 5 6 3 5 4 5 4 6 3 2 3 3 6 5 6 8 8 8 9 11 10 11 12 12 13 13 13 13
4 4 3 2 3 6 2 4 6 3 4 3 3 4 6 4 2 4 4 6 5 4 7 7 3 1 2 4 4 5 5 5 9 8 9 10 10 11 11 11 12 11 11
5 6 4 4 3 3 3 4 5 5 4 4 3 3 4 4 4 2 3 4 4 4 8 6 4 2 2 3 4 4 3 6 7 11 10 8 8 9 10 10 10 10 9
6 5 5 4 4 4 4 4 3 5 5 4 2 4 3 2 3 1 2 4 5 7 7 7 4 4 2 1 2 5 5 7 6 7 7 9 10 9 9 9 9 9 8
7 5 3 3 5 5 4 4 4 4 5 4 2 5 7 6 8 8 2 4 7 6 6 8 5 3 4 4 7 7 7 7 8 8 7 7 7 7 7 9 9 10 9
4 4 6 5 5 7 8 6 3 6 4 4 4 3 5 5 6 6 6 11 2 8 8 6 6 8 9 8 8 5 5 7 7 7 7 7 9 8 8 8 13 13 10
5 4 4 5 6 4 3 1 2 6 5 4 3 3 6 7 4 6 4 4 6 7 2 7 8 9 8 10 10 9 9 10 4 3 4 7 9 7 9 8 19 15 12
2 3 5 4 5 2 3 3 5 4 7 4 4 4 5 3 4 4 6 5 4 5 6 6 7 8 9 11 9 9 4 2 5 3 10 7 7 6 8 10 17 16 14
3 3 2 2 5 5 6 6 3 5 7 5 3 3 4 3 6 5 6 5 5 4 7 7 5 5 6 12 8 7 5 7 4 4 9 8 5 4 5 8 11 19 16
4 4 1 4 1 5 9 7 5 5 7 5 4 4 2 3 6 2 4 1 4 5 6 6 5 4 6 8 11 11 10 10 10 7 7 10 8 7 5 8 9 9 10
Wind_Direction
211 226 181 179 229 213 170 206 143 246 279 220 260 282 249 266 262 230 157 159 167 183 211 223 222 221 220 221 226 227 235 237 231 234 237 250 253 236 238 247 259 257 265
181 208 215 207 191 181 184 255 180 183 215 246 199 196 249 274 231 258 267 178 175 180 196 217 222 221 222 223 224 230 233 243 234 230 235 235 245 242 245 252 255 267 267
178 232 210 207 245 165 248 238 203 166 236 249 249 215 251 241 270 237 243 281 182 190 197 199 211 218 220 223 223 229 233 232 236 234 231 232 234 239 238 249 259 286 316
235 213 254 220 210 188 212 243 230 228 247 204 223 231 216 237 224 244 241 240 284 189 211 203 208 214 215 220 223 226 228 226 228 230 230 230 226 226 242 237 242 269 300
239 241 234 240 291 256 197 207 211 231 222 257 219 255 248 238 252 245 241 239 206 220 184 230 215 206 218 221 223 224 222 221 224 226 230 232 226 216 220 238 247 222 252
208 205 219 214 235 263 254 189 220 233 279 213 222 247 200 276 291 321 276 263 45 240 227 222 249 227 210 222 226 226 223 215 219 222 226 232 227 215 209 219 240 226 229
204 207 230 205 202 230 270 263 237 256 278 280 337 274 280 288 267 265 239 243 289 258 268 263 259 271 248 213 215 228 232 232 222 223 226 236 235 221 216 219 229 235 230
220 209 208 214 213 225 226 227 246 252 235 270 236 283 270 284 275 250 251 256 293 269 254 261 302 271 271 316 144 213 241 238 228 222 224 235 238 229 230 234 244 227 240
199 199 194 222 200 197 232 251 244 240 248 240 226 232 225 251 247 273 227 214 317 298 286 278 304 279 280 289 239 196 177 283 227 222 227 209 193 209 205 158 148 208 280
201 188 191 194 209 224 240 236 241 238 238 240 211 216 232 244 332 327 235 157 107 5 2 337 314 309 292 308 56 55 108 174 125 133 140 142 141 135 142 138 155 148 190
202 193 197 238 253 256 254 249 249 237 228 234 218 163 212 244 231 225 278 217 152 39 5 340 341 340 356 38 89 68 70 80 100 105 111 118 117 121 129 138 141 151 151
174 185 195 201 200 258 264 283 258 250 235 227 186 180 206 235 223 219 242 228 150 61 27 3 356 10 48 85 82 83 81 80 84 96 106 113 116 118 117 132 154 158 150
172 180 193 196 198 221 237 226 236 226 231 227 228 226 220 234 273 258 247 216 142 129 87 18 2 28 51 61 87 91 84 84 81 84 87 85 84 87 85 110 130 119 127
112 160 198 197 198 197 215 278 257 253 247 240 244 254 275 282 232 228 228 201 121 132 90 123 360 45 58 65 103 100 89 87 86 85 89 93 93 91 85 77 78 83 92
126 186 226 241 187 192 193 175 190 228 251 231 221 226 232 251 232 211 213 204 181 160 143 172 120 67 108 114 125 122 105 97 96 90 86 89 95 95 94 94 91 89 87
307 328 260 263 169 198 194 208 210 192 245 256 244 209 239 263 289 281 243 215 210 229 148 134 135 156 101 82 114 106 110 111 102 104 93 87 101 102 103 100 96 95 94
227 233 212 288 327 23 283 243 257 231 219 259 273 268 262 239 259 227 235 209 209 202 131 101 113 123 123 142 149 138 164 132 110 104 96 93 95 102 102 101 100 103 105
199 215 217 204 257 228 280 279 262 303 265 263 295 264 285 301 298 265 243 199 194 183 138 137 120 129 108 163 143 161 188 142 116 120 123 93 91 97 103 104 105 105 102
211 216 208 202 226 256 267 254 303 283 261 247 257 293 292 282 282 340 274 198 174 143 138 145 124 106 76 178 181 169 61 113 103 132 132 121 117 118 117 113 108 105 107
226 232 233 242 256 259 274 246 265 268 269 232 267 268 275 1 315 30 343 158 148 130 132 135 114 123 121 139 181 165 168 152 152 168 156 133 150 132 128 128 130 131 125
229 242 237 247 264 240 261 197 241 253 248 246 195 258 63 52 47 44 0 157 147 150 153 153 148 130 148 172 190 187 183 179 176 174 162 172 165 170 164 177 150 150 144
236 239 254 247 255 280 46 53 350 299 259 266 234 228 136 132 94 64 57 58 109 164 164 170 172 178 183 185 192 187 170 177 179 206 191 190 181 185 163 192 159 152 158
237 219 263 265 277 270 126 119 322 301 284 249 264 241 262 99 198 137 105 109 85 59 143 178 188 188 179 191 184 183 204 211 193 185 184 221 194 196 181 139 144 156 167
256 238 246 263 256 165 169 249 281 291 291 255 272 274 286 139 44 341 174 148 157 175 166 187 199 197 204 187 193 195 194 180 213 221 199 225 202 224 157 149 155 161 173
221 259 280 278 242 210 175 226 250 278 279 257 235 263 310 269 97 11 294 154 155 158 119 89 75 60 168 168 176 169 189 196 214 222 215 211 192 230 180 145 170 170 177
198 243 239 265 232 259 154 204 218 252 277 248 213 185 194 64 153 166 275 179 226 187 182 169 170 145 160 178 185 205 197 200 215 208 205 221 192 198 187 198 173 169 187